Ittoqqortoormiit

KL  EN  DA
ASIAQ
Weather Now GREENLAND SURVEY
Updated [WGT/WGST] Temperature [°C] Wind [m/s] Air pressure [hPa] Relative humidity [%] Precipitation [mm]
Present Wind chill Speed Max
18.04 00:00n/an/a0,8 ⇗3,11002760,2
17.04 23:00n/an/a0,7 ⇙1,91003750,4
17.04 22:00-9,30,00,0 ⇓8,11005740,3
17.04 21:00n/an/a6,4 ⇓11,11005630,3
17.04 20:00n/an/a7,4 ⇓11,01006620,1
17.04 19:00n/an/a6,0 ⇙9,91006610,1
17.04 18:00n/an/a6,6 ⇓10,61006590,1
17.04 17:00n/an/a7,7 ⇙10,0100661n/a
17.04 16:00n/an/a4,9 ⇓8,4100661n/a
17.04 15:00n/an/a5,8 ⇙7,1100759n/a
17.04 14:00n/an/a2,1 ⇖4,0100755n/a
17.04 13:00n/an/a2,1 ⇑3,5100754n/a
17.04 12:00n/an/a0,0 ⇓0,0100740n/a
17.04 11:00n/an/a0,0 ⇓2,0100743n/a
17.04 10:00n/an/a0,0 ⇓2,1100646n/a
17.04 09:00n/an/a0,0 ⇓4,0100641n/a
17.04 08:00n/an/a1,5 ⇙4,7100647n/a
17.04 07:00n/an/a0,4 ⇐5,1100548n/a
17.04 06:00n/an/a2,2 ⇙5,5100552n/a
17.04 05:00n/an/a3,2 ⇘7,4100452n/a
17.04 04:00n/an/a3,3 ⇓7,8100452n/a
17.04 03:00n/an/a1,2 ⇑9,5100357n/a
17.04 02:00n/an/a4,3 ⇓8,0100350n/a
17.04 01:00n/an/a1,3 ⇓3,21003720,1
17.04 00:00n/an/a1,8 ⇙3,21002730,1
Position: (70.48444444444,-21.95111111111)

[Back]